Wind_Speed
20 19 17 15 13 11 8 7 6 6 8 9 10 10 8 8 7 6 6 6 6 6 7 7 8 9 11 13 14 16 15 14 12
21 20 18 16 14 12 10 9 7 6 6 4 5 7 9 8 7 6 5 5 6 6 8 9 10 10 11 13 14 17 17 16 13
21 20 16 13 11 10 9 7 6 8 7 5 7 8 10 9 9 8 8 7 5 7 8 9 12 10 11 13 15 18 21 19 18
19 19 17 13 9 7 6 7 7 6 4 3 1 3 6 8 8 9 9 10 10 8 8 10 12 13 12 13 15 18 21 22 20
15 15 14 15 14 13 13 14 14 13 12 10 9 7 7 6 7 9 13 9 11 13 12 10 11 13 14 15 15 16 20 21 21
19 18 18 17 18 17 17 17 16 13 11 10 9 10 12 11 9 7 6 8 8 11 15 15 12 14 16 16 17 18 19 21 22
22 21 20 19 18 16 14 13 12 10 8 7 8 10 11 12 9 8 8 9 8 8 9 10 13 15 18 17 18 18 20 22 24
21 21 20 20 18 16 13 11 9 6 3 3 5 8 10 11 12 11 10 10 11 9 8 8 9 11 13 17 20 21 21 24 26
23 21 20 18 16 15 12 10 7 3 3 3 5 7 10 12 15 16 16 17 17 17 15 12 11 12 12 14 15 18 23 26 28
24 23 21 18 15 13 10 7 5 2 3 5 8 9 11 14 17 19 22 23 23 22 20 18 17 16 16 17 18 20 22 21 23
24 22 19 15 12 10 8 5 3 4 4 7 10 10 11 13 16 18 20 22 22 22 19 19 20 21 21 21 22 23 26 22 24
21 20 17 13 11 9 5 3 5 6 7 10 11 11 11 12 13 14 15 17 18 20 21 21 20 20 21 23 24 24 28 25 23
18 16 14 11 8 5 1 7 9 10 10 11 11 12 14 14 17 18 18 18 18 18 18 20 20 21 21 22 25 26 28 29 26
16 13 10 8 4 1 4 7 8 8 9 9 12 16 19 22 22 22 22 21 23 24 26 26 26 24 24 24 24 24 25 27 28
14 10 7 4 1 1 3 4 6 8 9 14 17 18 20 21 22 22 19 21 22 19 20 21 23 25 25 21 20 22 23 24 25
11 8 4 2 1 1 3 5 7 8 14 16 17 17 18 19 19 18 16 20 20 17 17 20 22 22 21 20 18 19 20 25 25
7 5 3 1 1 1 3 7 9 10 13 15 16 18 18 15 16 16 17 18 16 17 17 20 21 19 20 20 21 20 16 19 19
6 4 2 2 2 2 3 7 8 9 12 14 14 14 14 15 17 17 17 17 17 17 17 18 20 21 20 21 23 21 22 25 25
7 6 4 2 2 3 4 6 7 10 11 13 13 15 16 16 17 18 18 20 22 19 20 20 19 20 20 21 23 25 26 25 24
9 7 5 5 4 4 5 5 7 8 10 11 12 13 14 14 16 17 19 20 20 25 22 18 15 15 16 18 22 23 24 23 23
Wind_Direction
165 173 176 177 177 183 201 213 216 220 225 232 232 238 255 273 285 282 272 278 244 256 250 245 237 240 231 227 226 227 233 235 243
170 174 176 180 187 182 194 213 207 199 179 191 221 238 245 257 274 278 240 249 249 252 244 237 242 236 231 231 232 227 227 239 238
170 166 171 172 180 183 182 200 205 208 241 246 249 259 255 254 272 279 281 274 303 274 245 248 232 240 238 237 235 229 229 231 242
165 162 158 158 157 152 154 140 137 142 147 170 224 278 264 272 281 268 256 269 292 288 281 267 257 251 243 239 237 236 236 233 233
165 158 153 144 135 127 123 116 113 109 103 89 68 43 18 340 315 290 289 273 275 274 272 264 256 245 244 240 238 237 239 240 239
157 149 144 137 129 124 119 116 112 108 98 76 39 12 7 351 340 341 332 319 293 269 264 266 259 257 248 243 241 239 238 239 241
157 153 146 142 137 133 128 122 115 105 87 53 19 4 353 343 337 329 326 318 315 307 296 284 274 260 253 249 245 242 240 243 246
159 158 154 149 148 146 142 135 131 119 86 18 354 345 334 324 314 313 315 316 317 314 303 291 290 280 268 259 253 254 253 248 245
167 163 158 157 156 155 151 149 148 164 234 267 301 303 310 306 304 304 303 304 303 303 300 293 286 282 277 271 269 262 254 256 256
170 167 166 165 162 154 154 156 166 193 254 289 297 296 295 290 288 288 290 291 293 293 292 289 284 279 274 273 273 272 271 269 268
170 168 164 162 162 153 148 159 171 263 281 293 296 296 293 292 295 296 295 294 292 290 289 283 280 277 276 275 273 271 274 274 272
168 165 158 153 153 156 164 179 285 296 299 295 302 303 301 301 299 298 299 299 298 295 294 291 287 282 275 272 271 267 272 274 271
157 152 146 147 151 150 194 280 296 300 305 307 311 307 308 306 305 304 302 299 298 294 291 291 290 286 282 278 276 273 271 273 270
147 143 142 144 148 177 283 292 303 316 319 315 310 307 308 308 307 306 302 298 296 294 292 288 287 288 285 282 280 277 271 268 264
141 142 145 145 154 249 288 312 322 318 311 300 309 306 307 305 305 304 301 298 301 299 290 289 291 289 285 285 287 289 290 285 271
147 144 147 137 154 296 304 316 325 316 309 319 316 312 310 312 316 319 312 304 305 304 298 300 300 301 291 290 283 282 284 290 291
142 143 145 139 56 337 319 313 322 326 326 325 321 319 322 326 319 322 328 323 313 305 303 305 308 309 301 298 297 297 291 280 284
144 142 122 73 55 9 342 334 335 334 335 337 339 343 341 332 327 325 322 323 318 309 304 297 305 303 302 298 292 288 275 273 271
143 141 121 89 45 29 1 359 343 346 349 350 342 338 338 336 333 330 328 325 319 318 311 304 297 302 305 305 299 298 296 290 279
138 127 112 97 76 49 29 7 1 352 353 349 351 349 349 351 347 341 338 337 334 329 333 333 329 319 312 312 313 304 295 288 275
Height
1524 1529 1531 1535 1538 1540 1543 1543 1544 1545 1546 1546 1546 1546 1546 1546 1547 1547 1549 1550 1551 1552 1553 1553 1553 1555 1555 1557 1560 1562 1564 1565 1567
1520 1525 1529 1533 1535 1537 1540 1542 1543 1544 1543 1545 1545 1544 1543 1544 1544 1545 1547 1547 1547 1549 1548 1550 1550 1551 1553 1555 1556 1558 1561 1562 1565
1519 1523 1528 1531 1535 1537 1538 1540 1541 1542 1541 1544 1543 1542 1542 1543 1543 1543 1543 1544 1545 1545 1545 1545 1547 1548 1549 1550 1551 1553 1555 1558 1561
1519 1524 1527 1531 1534 1536 1537 1536 1538 1540 1541 1542 1542 1541 1541 1540 1540 1540 1540 1542 1542 1541 1542 1542 1542 1543 1545 1547 1548 1549 1550 1552 1555
1521 1526 1529 1530 1532 1535 1537 1537 1538 1539 1539 1540 1539 1539 1540 1539 1538 1537 1536 1538 1538 1539 1539 1539 1539 1540 1541 1542 1543 1545 1547 1548 1550
1522 1525 1528 1531 1531 1534 1537 1537 1539 1541 1541 1540 1540 1539 1538 1538 1538 1538 1537 1535 1535 1535 1535 1535 1536 1536 1537 1538 1539 1540 1541 1542 1544
1518 1523 1527 1531 1533 1536 1536 1537 1537 1538 1539 1540 1540 1539 1538 1537 1537 1537 1535 1533 1533 1533 1532 1531 1531 1531 1532 1532 1533 1534 1536 1537 1537
1518 1522 1525 1529 1532 1535 1537 1537 1538 1539 1539 1539 1539 1538 1538 1536 1535 1534 1533 1532 1531 1530 1530 1530 1529 1529 1528 1528 1528 1528 1529 1529 1530
1516 1520 1524 1528 1531 1534 1535 1536 1538 1538 1538 1538 1538 1537 1536 1534 1532 1531 1530 1529 1528 1527 1526 1526 1526 1525 1525 1524 1524 1524 1522 1522 1522
1514 1518 1523 1527 1530 1531 1534 1535 1536 1536 1536 1536 1535 1534 1533 1532 1530 1528 1527 1524 1522 1521 1520 1520 1519 1519 1520 1519 1518 1517 1516 1515 1514
1513 1517 1522 1526 1529 1530 1531 1533 1534 1533 1533 1533 1531 1530 1529 1527 1525 1522 1520 1518 1516 1515 1514 1514 1513 1513 1512 1512 1511 1511 1509 1509 1508
1512 1516 1519 1523 1525 1526 1528 1530 1530 1530 1530 1530 1528 1527 1525 1523 1520 1518 1516 1514 1511 1509 1507 1506 1506 1506 1505 1505 1504 1503 1502 1502 1501
1513 1516 1519 1521 1524 1525 1526 1526 1527 1526 1526 1524 1524 1522 1519 1517 1514 1512 1510 1508 1506 1505 1503 1502 1501 1499 1498 1496 1494 1493 1493 1493 1492
1513 1515 1519 1520 1523 1523 1523 1523 1523 1522 1520 1520 1517 1515 1512 1510 1508 1506 1504 1501 1499 1497 1496 1494 1492 1491 1490 1488 1486 1485 1484 1483 1482
1511 1514 1518 1519 1521 1522 1521 1520 1519 1518 1518 1514 1512 1510 1507 1506 1504 1501 1498 1495 1493 1492 1490 1489 1487 1483 1480 1481 1480 1477 1476 1475 1474
1513 1514 1516 1516 1518 1519 1519 1517 1515 1514 1510 1508 1507 1504 1502 1500 1497 1495 1494 1491 1488 1487 1486 1482 1479 1476 1474 1472 1472 1472 1471 1469 1467
1511 1513 1515 1515 1515 1515 1515 1513 1510 1508 1506 1504 1502 1500 1497 1495 1493 1490 1488 1486 1485 1482 1480 1477 1474 1471 1470 1468 1466 1464 1464 1462 1460
1509 1511 1512 1512 1512 1513 1513 1510 1508 1506 1503 1501 1499 1497 1494 1492 1489 1486 1484 1482 1480 1477 1475 1473 1470 1467 1465 1463 1461 1459 1458 1456 1455
1508 1510 1510 1511 1511 1510 1509 1508 1507 1504 1502 1500 1498 1495 1492 1490 1487 1485 1481 1478 1474 1472 1469 1465 1464 1462 1460 1457 1454 1451 1448 1447 1445
1506 1508 1508 1508 1508 1508 1508 1508 1507 1504 1501 1499 1497 1494 1491 1488 1486 1483 1478 1474 1470 1464 1461 1459 1456 1454 1452 1450 1447 1443 1440 1437 1435